Waarnemingen

Advertentie
Mijn weer
Schaffen, België (6465): temperatuur & dauwpunt: 16.04.2019 16:00:00 - 22.04.2019 16:00:00 (CEST)Schaffen, België (6465): windsnelheid & windstoten: 16.04.2019 16:00:00 - 22.04.2019 16:00:00 (CEST)Schaffen, België (6465): windrichting: 16.04.2019 16:00:00 - 22.04.2019 16:00:00 (CEST)Schaffen, België (6465): luchtdruk: 16.04.2019 16:00:00 - 22.04.2019 16:00:00 (CEST)Schaffen, België (6465): zicht: 16.04.2019 16:00:00 - 22.04.2019 16:00:00 (CEST)
Datum & Tijd tt [°C] td [°C] ff [km/u] ff [kn] fx [km/u] fx [kn] dd ppp [hPa] vv [km]
22.04.2019 16:00:00 - - - - 0 0 - - -
22.04.2019 15:00:00 - - - - 0 0 - - -
22.04.2019 14:00:00 - - - - - - - - -
22.04.2019 13:00:00 - - - - 0 0 - - -
22.04.2019 12:00:00 - - - - 0 0 - - -
22.04.2019 11:00:00 - - - - - - - - -
22.04.2019 10:00:00 - - - - 0 0 - - -
22.04.2019 09:00:00 - - - - 0 0 - - -
22.04.2019 08:00:00 - - - - - - - - -
22.04.2019 07:00:00 - - - - 0 0 - - -
22.04.2019 06:00:00 10,8 3,3 4 2 7 4 N 1011,2 20
22.04.2019 05:00:00 11,6 2,9 4 2 - - N 1011,7 20
22.04.2019 04:00:00 12,0 2,4 4 2 7 4 N 1012,5 20
22.04.2019 03:00:00 13,1 2,0 4 2 7 4 N 1013,0 20
22.04.2019 02:00:00 14,3 1,6 4 2 - - N 1013,6 20
22.04.2019 01:00:00 16,0 1,6 4 2 11 6 N 1014,2 20
22.04.2019 00:00:00 16,4 1,5 7 4 14 8 NO 1014,5 20
21.04.2019 23:00:00 17,0 2,1 7 4 - - NO 1015,0 20
21.04.2019 22:00:00 18,6 1,9 7 4 11 6 NO 1015,2 20
21.04.2019 21:00:00 20,6 2,1 7 4 14 8 ONO 1015,2 20
21.04.2019 20:00:00 22,2 2,0 7 4 - - ONO 1015,2 20
21.04.2019 19:00:00 23,5 0,3 11 6 22 12 NO 1015,6 20
21.04.2019 18:00:00 24,0 1,2 11 6 25 14 ONO 1016,2 20
21.04.2019 17:00:00 24,3 2,0 11 6 - - ONO 1016,8 4,5
21.04.2019 16:00:00 24,8 4,1 4 2 22 12 N 1017,5 20
21.04.2019 15:00:00 24,0 3,4 11 6 22 12 ONO 1018,3 19
21.04.2019 14:00:00 23,8 3,9 7 4 - - ONO 1019,2 20
21.04.2019 13:00:00 22,1 4,3 11 6 22 12 NO 1020,1 20
21.04.2019 12:00:00 21,3 6,7 4 2 14 8 N 1020,8 15
21.04.2019 11:00:00 18,9 5,4 4 2 - - N 1021,7 13
21.04.2019 10:00:00 16,0 4,1 7 4 14 8 NO 1022,2 17
21.04.2019 09:00:00 13,7 3,0 4 2 7 4 N 1022,3 13
21.04.2019 08:00:00 10,5 2,6 4 2 - - N 1022,7 19
21.04.2019 07:00:00 10,1 0,4 4 2 7 4 N 1022,7 20
21.04.2019 06:00:00 11,1 0,3 4 2 14 8 N 1023,1 20
21.04.2019 05:00:00 11,6 0,8 7 4 - - NO 1023,7 20
21.04.2019 04:00:00 12,3 1,6 7 4 11 6 NO 1024,2 20
21.04.2019 03:00:00 12,6 2,5 7 4 14 8 NNO 1024,5 20
21.04.2019 02:00:00 14,2 2,8 7 4 - - NO 1025,0 20
21.04.2019 01:00:00 15,4 3,1 7 4 14 8 NO 1025,5 20
21.04.2019 00:00:00 16,9 3,3 7 4 18 10 NO 1025,7 20
20.04.2019 23:00:00 18,3 3,0 11 6 - - NO 1025,7 20
20.04.2019 22:00:00 17,2 1,3 7 4 11 6 NNO 1025,7 20
20.04.2019 21:00:00 18,8 0,6 7 4 22 12 NNO 1025,5 20
20.04.2019 20:00:00 21,6 2,1 11 6 - - NO 1025,4 20
20.04.2019 19:00:00 23,7 1,6 11 6 22 12 NO 1025,5 20
20.04.2019 18:00:00 24,5 1,0 14 8 22 12 ONO 1025,9 20
20.04.2019 17:00:00 24,7 2,2 11 6 - - ONO 1026,2 20
20.04.2019 16:00:00 25,1 4,0 7 4 22 12 O 1026,7 20
20.04.2019 15:00:00 24,4 1,3 7 4 25 14 ONO 1027,5 20
20.04.2019 14:00:00 24,6 3,9 11 6 - - O 1028,0 20
20.04.2019 13:00:00 23,4 6,5 11 6 22 12 ONO 1028,5 19
20.04.2019 12:00:00 21,8 5,8 11 6 18 10 NO 1028,9 20
20.04.2019 11:00:00 19,1 6,7 11 6 - - NNO 1029,2 19
20.04.2019 10:00:00 15,6 6,2 7 4 14 8 NNO 1029,5 19
20.04.2019 09:00:00 12,4 5,5 7 4 11 6 NNO 1029,4 19
20.04.2019 08:00:00 9,6 4,0 11 6 - - N 1029,0 16
20.04.2019 07:00:00 8,6 3,6 7 4 11 6 NNO 1028,7 19
20.04.2019 06:00:00 10,1 3,7 7 4 7 4 NNO 1028,4 20
20.04.2019 05:00:00 10,9 3,4 4 2 - - N 1028,5 20
20.04.2019 04:00:00 13,3 3,3 4 2 7 4 N 1028,4 20
20.04.2019 03:00:00 13,3 3,3 4 2 7 4 N 1028,2 20
20.04.2019 02:00:00 14,3 3,0 4 2 - - N 1028,2 20
20.04.2019 01:00:00 15,8 2,8 2 1 14 8 - 1028,4 10
20.04.2019 00:00:00 16,5 2,9 7 4 14 8 NO 1028,2 20
19.04.2019 23:00:00 17,7 2,5 11 6 - - NO 1028,0 20
19.04.2019 22:00:00 19,2 1,9 7 4 11 6 NO 1027,7 20
19.04.2019 21:00:00 20,7 1,5 7 4 14 8 NO 1027,2 20
19.04.2019 20:00:00 22,1 2,1 7 4 - - ONO 1026,7 20
19.04.2019 19:00:00 23,3 1,4 14 8 25 14 ONO 1026,5 20
19.04.2019 18:00:00 23,9 2,2 14 8 25 14 NO 1026,2 9
19.04.2019 17:00:00 24,3 4,0 11 6 - - ONO 1026,2 20
19.04.2019 16:00:00 24,4 4,3 11 6 25 14 OZO 1026,4 20
19.04.2019 15:00:00 24,5 5,0 11 6 32 18 ONO 1026,4 19
19.04.2019 14:00:00 23,8 4,2 11 6 - - O 1026,7 20
19.04.2019 13:00:00 21,9 3,5 14 8 29 16 ONO 1027,0 20
19.04.2019 12:00:00 20,6 4,8 11 6 22 12 ONO 1027,4 20
19.04.2019 11:00:00 18,3 4,7 11 6 - - NO 1027,7 20
19.04.2019 10:00:00 16,4 4,5 7 4 18 10 ONO 1027,5 19
19.04.2019 09:00:00 14,3 4,0 11 6 18 10 O 1027,2 20
19.04.2019 08:00:00 11,3 4,2 7 4 - - N 1027,0 19
19.04.2019 07:00:00 10,5 2,8 4 2 11 6 N 1026,7 20
19.04.2019 06:00:00 11,4 2,8 7 4 11 6 N 1026,2 20
19.04.2019 05:00:00 12,1 2,9 4 2 - - N 1026,0 20
19.04.2019 04:00:00 13,0 3,1 7 4 18 10 O 1025,7 20
19.04.2019 03:00:00 13,8 3,0 7 4 18 10 ONO 1025,5 20
19.04.2019 02:00:00 14,3 3,1 11 6 - - O 1025,5 20
19.04.2019 01:00:00 15,1 3,0 11 6 22 12 O 1025,4 20
19.04.2019 00:00:00 15,8 2,9 14 8 18 10 ONO 1025,0 20
18.04.2019 23:00:00 14,4 3,4 7 4 - - NO 1024,7 20
18.04.2019 22:00:00 17,0 3,0 7 4 11 6 NO 1024,0 20
18.04.2019 21:00:00 19,1 2,6 7 4 22 12 ONO 1023,7 20
18.04.2019 20:00:00 20,1 2,8 14 8 - - O 1023,2 20
18.04.2019 19:00:00 21,1 2,9 14 8 32 18 O 1022,7 20
18.04.2019 18:00:00 21,7 3,9 14 8 32 18 O 1022,7 20
18.04.2019 17:00:00 21,3 3,5 18 10 - - O 1022,8 20
18.04.2019 16:00:00 21,2 3,7 22 12 36 19 ONO 1023,1 20
18.04.2019 15:00:00 21,1 3,2 18 10 40 21 O 1023,1 20
18.04.2019 14:00:00 20,5 3,6 18 10 - - O 1023,5 20
18.04.2019 13:00:00 20,2 3,3 18 10 32 18 ONO 1023,7 20
18.04.2019 12:00:00 20,0 5,0 14 8 25 14 O 1024,0 20
18.04.2019 11:00:00 18,1 3,7 11 6 - - ONO 1024,2 20
18.04.2019 10:00:00 16,0 3,6 7 4 18 10 O 1024,2 20
18.04.2019 09:00:00 13,1 4,5 7 4 14 8 O 1024,0 20
18.04.2019 08:00:00 10,1 3,8 7 4 - - O 1023,6 15
18.04.2019 07:00:00 9,8 4,2 7 4 11 6 ONO 1023,2 15
18.04.2019 06:00:00 10,2 4,9 8 4 14 8 NO 1022,7 10
18.04.2019 05:00:00 10,5 6,0 7 4 - - ONO 1023,1 16
18.04.2019 04:00:00 9,6 7,2 4 2 7 4 N 1023,0 10
18.04.2019 03:00:00 9,6 7,4 4 2 7 4 N 1022,8 10
18.04.2019 02:00:00 9,8 7,6 4 2 - - N 1023,2 10
18.04.2019 01:00:00 10,6 7,7 4 2 14 8 N 1023,1 14
18.04.2019 00:00:00 10,1 7,6 7 4 11 6 NO 1023,0 12
17.04.2019 23:00:00 11,0 7,6 7 4 - - NO 1022,7 11
17.04.2019 22:00:00 11,5 7,2 7 4 11 6 NO 1022,6 11
17.04.2019 21:00:00 13,0 7,1 7 4 11 6 ONO 1022,1 13
17.04.2019 20:00:00 14,6 7,1 7 4 - - N 1021,8 17
17.04.2019 19:00:00 14,8 7,3 4 2 11 6 N 1021,8 13
17.04.2019 18:00:00 14,8 6,9 7 4 14 8 ZO 1022,1 15
17.04.2019 17:00:00 15,0 7,1 7 4 - - ZO 1021,8 13
17.04.2019 16:00:00 15,3 6,5 7 4 14 8 Z 1021,8 18
17.04.2019 15:00:00 14,9 6,9 7 4 14 8 Z 1021,8 18
17.04.2019 14:00:00 14,9 6,9 8 4 - - Z 1021,7 10
17.04.2019 13:00:00 15,1 7,5 7 4 18 10 ZZW 1021,7 8
17.04.2019 12:00:00 13,7 8,1 9 5 14 8 Z 1021,7 8
17.04.2019 11:00:00 13,1 9,1 4 2 - - N 1021,5 7
17.04.2019 10:00:00 12,0 8,8 4 2 7 4 N 1021,2 5
17.04.2019 09:00:00 11,0 8,6 4 2 11 6 N 1020,6 6
17.04.2019 08:00:00 10,3 9,3 7 4 - - Z 1020,3 10
17.04.2019 07:00:00 10,1 8,9 4 2 7 4 N 1019,7 15
17.04.2019 06:00:00 10,3 8,9 5 3 11 6 ZO 1019,5 10
17.04.2019 05:00:00 10,5 8,3 4 2 - - N 1019,2 19
17.04.2019 04:00:00 10,6 8,0 4 2 7 4 N 1019,2 20
17.04.2019 03:00:00 11,0 8,2 4 2 11 6 N 1019,0 20
17.04.2019 02:00:00 11,0 8,1 7 4 - - ZZO 1018,8 20
17.04.2019 01:00:00 11,2 8,1 7 4 11 6 ZZO 1018,8 20
17.04.2019 00:00:00 11,7 8,2 7 4 11 6 ZZO 1018,7 20
16.04.2019 23:00:00 12,0 8,3 7 4 - - ZO 1018,5 20
16.04.2019 22:00:00 12,1 7,9 7 4 11 6 ZZO 1018,3 20
16.04.2019 21:00:00 12,6 7,5 7 4 22 12 Z 1017,7 20
16.04.2019 20:00:00 13,6 7,5 11 6 - - Z 1017,1 20
16.04.2019 19:00:00 14,3 7,4 14 8 29 16 Z 1016,5 20
16.04.2019 18:00:00 15,3 7,4 22 12 32 18 Z 1015,7 20
16.04.2019 17:00:00 17,0 6,9 18 10 - - Z 1015,2 20
16.04.2019 16:00:00 17,5 5,6 18 10 32 18 Z 1014,8 20

tt = temperatuur
td = dauwpunt
ff = windsnelheid
fx = windstoten
dd = windrichting
ppp = luchtdruk
vv = zicht

Weerstations in de omgeving